Regional Weather Roundup
Issued by NWS

Home | Current Version | Previous Version | Graphics & Text | Print | Product List | Glossary Off
Versions: 1 2 3 4 5 6 7 8 9 10 11 12 13 14 15 16 17 18 19 20 21 22 23 24 25 26 27 28 29 30 31 32 33 34 35 36 37 38 39 40 41 42 43 44 45 46 47 48 49 50

000
ASUS43 KTOP 221659
RWRKS

WEATHER ROUNDUP FOR KANSAS
NATIONAL WEATHER SERVICE GOODLAND KS
1200 PM CDT TUE AUG 22 2017

NOTE:  "FAIR" INDICATES FEW OR NO CLOUDS BELOW 12,000 FEET WITH NO
SIGNIFICANT WEATHER AND/OR OBSTRUCTIONS TO VISIBILITY.

KSZ001>006-013>018-027>032-041>047-221800-
NORTHWEST KANSAS

CITY           SKY/WX    TMP DP  RH WIND       PRES   REMARKS
GOODLAND       CLOUDY    68  60  75 E6        30.32F
HAYS           MOSUNNY   77  61  57 E22       30.21R
HILL CITY      SUNNY     78  59  51 NE13      30.26R
RUSSELL        SUNNY     79  59  50 NE18G28   30.19S
$$

KSZ061>065-074>080-084>089-221800-
SOUTHWEST KANSAS

CITY           SKY/WX    TMP DP  RH WIND       PRES   REMARKS
DODGE CITY     SUNNY     78  63  59 NE20G28   30.20S
ELKHART          N/A     65  65 100 N10         N/A
GARDEN CITY    SUNNY     76  58  53 NE20G25   30.23F
GREAT BEND     SUNNY     77  62  59 NE22      30.19R
LIBERAL        CLOUDY    73  66  78 NE18      30.22S
$$

KSZ066>073-081>083-090>101-221800-
SOUTHEAST KANSAS

CITY           SKY/WX    TMP DP  RH WIND       PRES   REMARKS
CHANUTE        CLOUDY    74  71  91 MISG      30.11R
COFFEYVILLE    MOSUNNY   80  71  74 S9        30.07R
HUTCHINSON     MOSUNNY   82  68  62 NE10      30.13R
MEDICINE LODGE   N/A     79  68  69 N21       30.10R
NEWTON         MOSUNNY   75  67  76 NE15G25   30.14R
PARSONS        PTSUNNY   79  71  76 VRB5      30.10R
WICHITA INTL   CLOUDY    78  70  76 N18       30.10R
WICHITA JABRA  CLOUDY    74  71  91 NE16      30.11R
WICHITA MCCONL PTSUNNY   78  70  77 N20       30.10R
WINFIELD       SUNNY     86  72  62 NE9       30.06S
$$

KSZ007>012-019>026-033>040-048>060-102>105-221800-
NORTHEAST KANSAS

CITY           SKY/WX    TMP DP  RH WIND       PRES   REMARKS
CONCORDIA      SUNNY     78  59  51 NE12      30.20S
EMPORIA        CLOUDY    76  69  79 N15       30.12S
LAWRENCE       MOSUNNY   78  68  71 N12       30.12S
MANHATTAN      SUNNY     78  65  63 N13       30.16R
OLATHE IND     SUNNY     76  68  76 N16       30.13R
OLATHE EXE     SUNNY     75  66  73 N12       30.12R
SALINA         MOSUNNY   81  62  52 NE17      30.17R
TOPEKA BILLARD MOSUNNY   78  69  73 N12       30.14R
TOPEKA FORBES  SUNNY     77  67  71 N16       30.14R
$$



USA.gov is the U.S. government's official web portal to all federal, state and local government web resources and services.